Weather History for Branson, MO

Change the Weather History Date:

Monday, February 4, 2013

  Actual Average (KHRO) Record (KHRO)
Temperature  
Mean Temperature 48 °F 38 °F  
Max Temperature 57 °F 48 °F 78 °F (1962)
Min Temperature 37 °F 28 °F -7 °F (1912)
Degree Days  
Heating Degree Days 17 27  
Month to date heating degree days 108  
Since 1 July heating degree days 2594  
Cooling Degree Days 0 0  
Month to date cooling degree days 0  
Year to date cooling degree days 0  
Moisture  
Dew Point 31 °F    
Average Humidity 57    
Maximum Humidity 81    
Minimum Humidity 35    
Precipitation  
Precipitation 0.00 in 0.09 in 1.11 in (1960)
Month to date precipitation 0.35  
Year to date precipitation 2.91  
Snow  
Snow 0.00 in 0.20 in 3.30 in (2011)
Month to date snowfall 0.8  
Since 1 July snowfall 6.8  
Snow Depth -    
Sea Level Pressure  
Sea Level Pressure 29.92 in    
Wind  
Wind Speed 7 mph (WSW)    
Max Wind Speed 17 mph    
Max Gust Speed 28 mph    
Visibility 10 miles    
Events Rain    
T = Trace of Precipitation, MM = Missing Value Source: NWS Daily Summary

Daily Weather History Graph

Daily Weather History Graph

Search for Another Location

Airport:

Trip Planner

Search our weather history database for the weather conditions in past years. The results will help you decide how hot, cold, wet, or windy it might be!

Date:

Astronomy

Feb. 04, 2013 Rise Set
Actual Time 7:11 AM CST 5:42 PM CST
Civil Twilight 6:44 AM CST 6:09 PM CST
Nautical Twilight 6:13 AM CST 6:40 PM CST
Astronomical Twilight 5:43 AM CST 7:10 PM CST
Moon 1:46 AM CST (2/4) 12:08 PM CST (2/4)
Length of Visible Light 11h 24m
Length of Day
10h 30m
Last Quarter, 37% of the Moon is Illuminated
Feb 4
Last Quarter
Feb 10
New
Feb 17
First Quarter
Feb 25
Full
Mar 4
Last Quarter

Hourly Weather History & Observations

Time (CST) Temp. Windchill Dew Point Humidity Pressure Visibility Wind Dir Wind Speed Gust Speed Precip Events Conditions
12:15 AM 46.4 °F 42.4 °F 23.0 °F 40% 29.99 in 10.0 mi South 8.1 mph - N/A   Clear
12:35 AM 46.4 °F 42.4 °F 21.2 °F 37% 29.98 in 10.0 mi South 8.1 mph - N/A   Clear
12:55 AM 46.4 °F 43.5 °F 21.2 °F 37% 29.98 in 10.0 mi South 5.8 mph - N/A   Clear
1:15 AM 46.4 °F 43.5 °F 23.0 °F 40% 29.97 in 10.0 mi SSE 5.8 mph - N/A   Clear
1:35 AM 46.4 °F 43.5 °F 23.0 °F 40% 29.96 in 10.0 mi South 5.8 mph - N/A   Clear
1:55 AM 46.4 °F 42.9 °F 23.0 °F 40% 29.95 in 10.0 mi South 6.9 mph - N/A   Clear
2:15 AM 46.4 °F 44.3 °F 23.0 °F 40% 29.94 in 10.0 mi South 4.6 mph - N/A   Clear
2:35 AM 46.4 °F 42.9 °F 23.0 °F 40% 29.94 in 10.0 mi South 6.9 mph - N/A   Clear
2:55 AM 46.4 °F 43.5 °F 23.0 °F 40% 29.93 in 10.0 mi South 5.8 mph - N/A   Mostly Cloudy
3:15 AM 46.4 °F 44.3 °F 23.0 °F 40% 29.93 in 10.0 mi SSE 4.6 mph - N/A   Mostly Cloudy
4:55 AM 51.8 °F - 24.8 °F 35% 29.89 in 10.0 mi South 8.1 mph 16.1 mph N/A   Overcast
5:15 AM 50.0 °F - 28.4 °F 43% 29.89 in 10.0 mi SSW 8.1 mph - N/A   Overcast
6:51 AM 48.2 °F - 33.8 °F 58% 29.87 in 8.0 mi SSW 15.0 mph 24.2 mph N/A Rain Light Rain
7:54 AM 46.4 °F 39.8 °F 35.6 °F 66% 29.88 in 8.0 mi South 16.1 mph 25.3 mph N/A Rain Light Rain
8:57 AM 48.2 °F - 35.6 °F 62% 29.89 in 4.0 mi SSW 17.3 mph 27.6 mph N/A Rain Light Rain
9:50 AM 44.6 °F 40.2 °F 39.2 °F 81% 29.90 in 10.0 mi SSW 8.1 mph - N/A   Overcast
10:47 AM 44.6 °F 39.7 °F 39.2 °F 81% 29.92 in 10.0 mi SSW 9.2 mph - N/A   Overcast
11:50 AM 46.4 °F 40.7 °F 39.2 °F 76% 29.88 in 10.0 mi SSW 12.7 mph 19.6 mph N/A   Mostly Cloudy
12:46 PM 53.6 °F - 41.0 °F 62% 29.86 in 10.0 mi SW 9.2 mph 18.4 mph N/A   Scattered Clouds
1:49 PM 55.4 °F - 41.0 °F 58% 29.85 in 10.0 mi WNW 11.5 mph 21.9 mph N/A   Mostly Cloudy
2:48 PM 55.4 °F - 41.0 °F 58% 29.84 in 10.0 mi WNW 9.2 mph 18.4 mph N/A   Mostly Cloudy
3:45 PM 57.2 °F - 41.0 °F 55% 29.84 in 10.0 mi WNW 5.8 mph - N/A   Scattered Clouds
4:49 PM 57.2 °F - 39.2 °F 51% 29.84 in 10.0 mi West 5.8 mph - N/A   Scattered Clouds
6:50 PM 50.0 °F - 37.4 °F 62% 29.88 in 10.0 mi NW 4.6 mph - N/A   Partly Cloudy
7:50 PM 48.2 °F - 33.8 °F 58% 29.90 in 10.0 mi NW 6.9 mph - N/A   Partly Cloudy
7:55 PM 48.2 °F - 33.8 °F 58% 29.90 in 10.0 mi NW 6.9 mph - N/A   Partly Cloudy
8:15 PM 48.2 °F - 32.0 °F 54% 29.91 in 10.0 mi NW 8.1 mph - N/A   Partly Cloudy
8:35 PM 46.4 °F 42.9 °F 32.0 °F 57% 29.91 in 10.0 mi NW 6.9 mph - N/A   Scattered Clouds
8:45 PM 48.2 °F - 32.0 °F 54% 29.91 in 10.0 mi NW 6.9 mph - N/A   Scattered Clouds
8:55 PM 44.6 °F 40.7 °F 32.0 °F 61% 29.92 in 10.0 mi NNW 6.9 mph - N/A   Partly Cloudy
9:15 PM 42.8 °F 39.3 °F 32.0 °F 66% 29.93 in 10.0 mi North 5.8 mph - N/A   Partly Cloudy
9:35 PM 44.6 °F 42.2 °F 32.0 °F 61% 29.94 in 10.0 mi NNW 4.6 mph - N/A   Partly Cloudy
9:55 PM 41.0 °F 39.0 °F 32.0 °F 70% 29.94 in 10.0 mi NNW 3.5 mph - N/A   Scattered Clouds
10:15 PM 42.8 °F 39.3 °F 32.0 °F 66% 29.95 in 10.0 mi NW 5.8 mph - N/A   Mostly Cloudy
10:35 PM 42.8 °F 41.1 °F 32.0 °F 66% 29.94 in 10.0 mi NNW 3.5 mph - N/A   Mostly Cloudy
10:55 PM 41.0 °F 39.0 °F 32.0 °F 70% 29.95 in 10.0 mi North 3.5 mph - N/A   Mostly Cloudy
11:15 PM 39.2 °F 37.0 °F 32.0 °F 75% 29.95 in 10.0 mi NNW 3.5 mph - N/A   Scattered Clouds
11:35 PM 39.2 °F - 32.0 °F 75% 29.95 in 10.0 mi Calm Calm - N/A   Clear
11:55 PM 37.4 °F 34.9 °F 32.0 °F 81% 29.95 in 10.0 mi NNW 3.5 mph - N/A   Clear